Retour au catalogue

HULIANWANG DIGUI-95

ActifCommunicationsLEO
NORAD 66003·PAYLOAD·🇨🇳 China

Lancé Oct 16, 2025 depuis Wenchang Space Launch Site

Loading…

Prochains Passages (prochaines 24 heures)

TLE

FraisSource: Space-Track

Époque: Sep 14, 2026, 13:40 UTC

1 66003U 25231J   26257.57011361 -.00000097  00000-0  57337-4 0  9990
2 66003  50.0019 214.8159 0000310  33.6585 326.4307 13.29327300 44784

Suivez HULIANWANG DIGUI-95 en temps réel avec AllMySat

Download on the App Store